Location: Sungai Latat
(2.4500°N, 113.7667°E)
Time: 12:04:55
(UTC+00:00)

Daily predictions for brighter satellites

Satellite Brightness Start Highest point End
(mag) Time Altitude Azimuth Time Altitude Azimuth Time Altitude Azimuth
Cosmos 967 Rocket 4.5 12:00:44 10° S 12:07:01 59° ESE 12:13:19 10° NNE
Cosmos 614 Rocket 3.8 12:04:46 10° N 12:09:55 83° ENE 12:11:37 43° SSE
ERBS 3.4 12:09:53 10° NNW 12:11:48 36° NNW 12:11:48 36° NNW
USA 305 3.9 12:09:07 10° NW 12:12:58 38° WSW 12:13:58 32° SSW
Ariane 3 Deb 2.6 12:05:21 10° W 12:15:27 83° N 12:15:59 67° E
deb Chang Zheng 4 4.5 12:17:17 34° NNE 12:17:17 34° NNE 12:19:59 10° N
Cosmos 1833 Rocket 3.1 12:18:22 43° ENE 12:18:22 43° ENE 12:22:30 10° NNE
USA 308 3.6 12:15:05 10° NW 12:19:02 44° WSW 12:19:28 43° SW
OBJECT-B 3.0 12:21:17 18° NNW 12:21:17 18° NNW 12:22:12 10° NNW
Cosmos 2369 Rocket 2.3 12:15:04 10° NNW 12:20:41 74° WSW 12:22:47 40° S
Cosmos 1452 Rocket 3.3 12:23:15 62° SSE 12:24:05 78° ESE 12:29:20 10° NNE
Ariane H10 3.7 12:13:02 10° W 12:24:13 54° N 12:24:50 49° NNE
Centaur AC-72 3.8 12:19:06 10° W 12:25:25 71° SSW 12:31:45 37° ESE
Meteor 2-5 Rocket 3.8 12:20:10 10° S 12:25:42 72° W 12:31:11 10° N
Cosmos 1745 Rocket 4.1 12:20:01 10° NNE 12:25:43 52° ENE 12:25:43 52° ENE
Delta 2 Rocket 4.5 12:21:42 10° SW 12:26:39 39° S 12:26:39 39° S
Cosmos 1025 Rocket 3.3 12:28:36 63° NW 12:28:36 63° NW 12:32:23 10° N
COBE Rocket 4.0 12:35:32 66° NW 12:35:32 66° NW 12:39:33 10° NNW
ARIANE DEB (SYLDA) 3.8 12:22:05 10° W 12:37:03 41° SSW 12:37:29 40° S
ARIANE 5 DEB (SYLDA) 3.6 12:35:05 10° W 12:38:24 67° WSW 12:38:24 67° WSW
IRS-1C Rocket 4.2 12:39:47 69° N 12:39:47 69° N 12:44:22 10° NNW
CZ-4 R/B 3.9 12:38:34 14° SW 12:40:36 19° WSW 12:43:35 10° NW
Meteor 1-24 Rocket 4.2 12:41:59 32° SW 12:44:09 51° W 12:49:17 10° N
USA 267 3.1 12:48:07 10° NE 12:55:03 81° SW 13:01:13 10° SW
Sea Lan Dem Rocket 4.3 12:54:19 10° W 13:00:14 81° S 22:50:52 10° E
H-2A R/B 4.4 12:34:02 10° WSW 13:03:14 37° NW 13:07:22 17° NNE
Hubble Space Telescope 3.8 13:06:35 10° W 13:07:07 13° W 13:07:07 13° W
ARIANE 5 R/B 4.4 13:19:21 10° W 13:20:47 15° W 13:20:47 15° W
ATLAS 3B CENTAUR R/B 4.0 13:46:03 10° WNW 13:58:34 69° WNW 13:58:34 69° WNW
Tsikada Rocket 4.4 19:57:25 56° NNE 19:57:25 56° NNE 20:02:13 10° N
Ariane H10+ 3.5 19:57:53 57° S 19:57:56 57° S 20:16:41 10° ESE
ATLAS 3B R/B 3.8 20:08:28 27° NNW 20:08:28 27° NNW 20:11:53 10° N
Ariane H10 3.8 20:09:58 28° NE 20:09:58 28° NE 20:11:40 10° ENE
ARIANE 5 R/B 4.2 20:07:46 10° N 20:09:45 23° NNW 20:09:45 23° NNW
Meteor 1-18 Rocket 4.3 20:08:42 10° N 20:14:07 77° N 20:14:07 77° N
Envisat 3.8 20:12:10 10° NNE 20:17:01 47° ESE 20:18:01 41° SE
ARIANE 3 DEB 3.8 20:18:51 56° N 20:18:51 56° N 20:22:22 10° ENE
Lacrosse 4 Rocket 3.9 20:18:41 10° NNE 20:21:52 21° ENE 20:25:06 10° ESE
SL-16 R/B 3.0 20:16:58 10° N 20:22:27 50° ENE 20:27:54 10° SSE
Spot 4 Rocket 3.9 20:22:34 10° N 20:27:28 79° NW 20:27:28 79° NW
Cosmos 2298 Rocket 4.1 20:24:10 10° NNW 20:28:45 66° NW 20:28:45 66° NW
Cosmos 1844 Rocket 2.5 20:33:29 70° WSW 20:33:52 73° WNW 20:39:26 10° N
Cosmos 2034 Rocket 3.8 20:28:00 10° N 20:34:08 84° W 20:37:46 26° S
Cosmos 1933 Rocket 3.5 20:35:45 82° ESE 20:35:48 83° E 20:40:14 10° N
ARIANE 5 R/B 2.3 20:38:28 68° SSW 20:38:47 72° S 20:52:08 10° E
ATLAS 5 CENTAUR R/B 3.6 20:39:14 31° SSW 20:43:50 52° SSE 21:19:44 10° ENE
Cosmos 923 Rocket 3.9 20:42:13 46° SSW 20:43:50 89° ESE 20:49:09 10° NNE
Meteor 2-4 Rocket 3.9 20:40:44 10° NNW 20:46:20 53° W 20:47:42 44° SW
Meteor 2-19 Rocket 4.4 20:46:55 37° SSW 20:49:17 63° W 20:55:21 10° N
Landsat 4 3.8 20:46:26 10° NNE 20:50:08 71° ESE 20:50:58 50° SSE
Cosmos 1680 Rocket 3.7 20:47:27 26° S 20:50:29 73° ESE 20:55:45 10° NNE
PSLV R/B 3.3 20:46:37 10° N 20:50:46 75° WNW 20:51:19 63° SW
SWIFT 2.3 20:54:37 46° NW 20:55:45 77° NNE 20:59:54 10° ESE
ARIANE 44LP R/B 3.5 20:56:04 33° SSE 20:56:04 33° SSE 21:01:13 10° ESE
Milstar 3 Cent rocket 4.1 20:54:19 11° NW 20:56:29 14° NNW 20:59:21 10° NNE
Cosmos 1634 Rocket 4.4 20:51:49 10° N 20:58:03 65° E 21:04:19 10° SSE
SL-08 R/B 3.5 20:56:45 10° SSE 21:01:32 74° ENE 21:06:23 10° N
Cosmos 332 Rocket 3.8 20:57:09 10° NNW 21:01:56 56° WSW 21:06:43 10° S
CZ-4C R/B 1.7 21:02:00 43° W 21:02:35 46° WNW 21:06:43 10° N
Cosmos 2112 Rocket 4.0 20:58:59 18° S 21:02:59 83° ESE 21:08:17 10° NNE
YAOGAN 6 4.2 21:02:14 10° NNW 21:03:50 20° NW 21:03:50 20° NW
Meteor 2-15 4.4 21:02:17 10° N 21:08:23 85° E 21:14:28 10° S
Meteor 2-8 Rocket 4.4 21:02:22 10° N 21:08:31 89° W 21:14:42 10° S
CZ-2C R/B 3.6 21:07:17 10° NNW 21:10:51 32° WNW 21:11:09 31° W
CZ-2C R/B 3.1 21:06:00 10° SSE 21:11:23 67° ENE 21:16:52 10° N
SEDSat Delta rocket 3.8 21:09:22 27° SW 21:12:32 74° SE 21:18:52 10° ENE
ARIANE 5 R/B 1.3 21:13:43 55° W 21:14:07 89° N 21:18:04 10° E
Meteor 2-9 Rocket 4.2 21:08:55 10° SSW 21:14:37 68° W 21:20:15 10° N
Okean 1-7 4.4 21:12:47 10° NNE 21:16:51 41° E 21:20:59 10° SSE
Meteor 1-31 Rocket 3.9 21:13:52 10° NNE 21:17:34 43° ESE 21:21:17 10° S
CZ-2C R/B 3.1 21:19:27 10° N 21:23:59 48° WNW 21:28:10 12° SSW
Cosmos 1809 Rocket 4.4 21:18:01 10° S 21:24:06 78° W 21:30:14 10° N
Aurora 2 Rocket 3.0 21:24:37 22° SSW 21:24:39 22° SSW 21:27:10 10° SSE
USA 229 DEB 3.6 21:20:18 10° SSW 21:26:26 77° ESE 21:32:35 10° NNE
USA 229 3.6 21:20:22 10° SSW 21:26:31 76° ESE 21:32:41 10° NNE
BREEZE-M DEB (TANK) 4.3 21:25:55 21° WSW 21:27:14 24° SW 21:33:41 10° SSE
DELTA 4 R/B 4.0 21:25:52 10° NNW 21:28:16 22° NE 21:33:36 10° E
Cosmos 1869 Rocket 4.1 21:29:49 11° SSW 21:33:41 38° W 21:37:50 10° NNW
NOAA 11 4.5 21:29:54 10° N 21:35:03 47° WNW 21:40:15 10° SSW
CZ-4B R/B 4.0 21:32:14 10° N 21:36:39 83° WNW 21:41:00 10° SSW
NOSS 3-1 (C) 4.4 21:34:43 14° W 21:36:45 18° WNW 21:40:03 10° NNW
CZ-2C R/B 2.8 21:36:35 10° S 21:38:48 18° SE 21:41:04 10° E
Cosmos 1733 Rocket 3.3 21:43:19 10° S 21:47:46 77° E 21:52:11 10° N
NOAA 12 4.3 21:45:54 10° NNE 21:51:11 80° ESE 21:56:28 10° S
Cosmos 1703 Rocket 3.6 21:48:03 10° NNW 21:52:26 63° W 21:56:52 10° S
ASTRO E2 3.0 21:49:15 10° WNW 21:52:56 42° SSW 21:56:38 10° SE
Cosmos 2292 Rocket 2.5 21:49:59 10° S 21:53:12 76° W 21:56:06 10° N
BREEZE-M R/B 4.1 21:49:15 10° NNW 21:53:16 36° NE 21:55:50 10° ESE
Delta 198 4.0 21:48:46 10° SW 21:53:24 50° SSE 21:57:21 10° ENE
NOSS 3-1 (A) 3.8 21:49:29 10° SW 21:53:47 30° WNW 21:58:07 10° N
OAO 2 Rocket 3.5 21:50:46 10° WSW 21:55:47 62° NW 22:00:42 10° NE
ARIANE 44L R/B 2.1 21:50:29 10° W 21:56:26 59° SSW 21:58:37 10° ESE
Cosmos 2278 Rocket 2.8 21:51:49 10° S 21:57:24 60° ESE 22:02:58 10° NNE
Lacrosse 4 Rocket 3.1 21:57:59 10° WNW 22:00:13 14° WSW 22:02:29 10° SW
CZ-3 R/B 4.0 21:47:51 10° W 22:06:50 26° SW 22:14:02 10° S
ARIANE 5 R/B 3.8 22:06:08 10° W 22:30:37 52° S 22:35:36 10° ESE
ARIANE 5 R/B 4.3 14:49:44 10° W 22:54:28 72° S 23:00:21 10° ESE
